Theta_e
296 297 297 297 297 296 297 298 297 297 298 297 298 298 297 298 297 297 296 295 294 289 292 294 294 293 293 291 290 287 289 288 289 285 286 293 287 291 288 289 289 289 287 283 281 282 291 289 289 290 289 290 289 288
295 296 297 297 298 298 298 298 298 298 298 298 297 298 297 297 298 297 297 296 294 292 289 294 294 294 294 293 289 284 288 284 290 287 284 285 283 283 284 285 290 289 289 286 289 288 289 288 289 289 289 288 289 288
295 295 295 295 297 297 297 297 298 298 298 298 297 298 298 298 297 297 297 297 295 293 294 292 291 295 294 294 294 289 285 290 291 289 285 285 284 288 284 284 286 288 288 289 287 289 289 289 288 288 288 289 288 287
294 294 294 294 295 296 296 296 297 297 297 297 298 298 298 297 298 298 297 295 294 293 289 289 293 294 295 294 294 294 292 291 290 291 287 286 283 291 288 290 289 290 288 288 289 290 289 289 288 288 288 287 287 287
294 294 294 294 295 295 295 295 296 296 296 296 296 297 297 297 296 296 297 296 295 294 294 287 290 294 294 295 294 294 293 292 290 293 293 290 288 289 285 291 291 291 291 291 291 290 289 290 289 289 288 288 287 287
294 294 294 294 294 294 294 295 295 295 295 295 295 295 295 296 297 297 295 296 296 295 295 295 292 287 294 294 293 292 292 292 293 294 293 290 290 291 290 286 291 291 291 291 291 290 290 290 290 288 287 287 286 286
293 294 293 294 293 293 294 294 294 294 294 294 294 295 295 294 296 294 295 295 296 295 294 294 294 287 291 291 289 291 292 293 293 294 294 291 292 293 292 292 291 291 290 290 289 289 290 289 289 287 286 286 283 280
294 293 293 293 293 293 293 293 293 293 293 294 294 294 294 295 295 295 294 294 295 293 292 294 293 287 288 293 293 291 294 293 294 294 290 292 292 293 293 291 291 291 290 290 290 289 290 289 285 282 280 277 275 277
293 292 292 293 293 293 292 292 292 292 293 293 293 293 293 293 293 294 294 295 294 294 294 293 290 283 288 291 291 291 292 293 293 293 291 291 288 292 290 290 290 289 289 290 287 280 279 283 283 279 276 274 276 275
292 292 292 291 291 291 291 291 292 292 292 291 292 292 293 291 292 293 294 294 293 293 293 293 279 289 288 286 284 289 291 292 291 289 289 292 291 290 290 289 287 286 285 282 280 279 274 275 278 276 276 273 272 272
291 290 289 289 289 289 289 290 291 290 290 291 291 292 292 293 292 293 293 294 291 292 293 287 289 287 282 286 285 289 287 289 291 288 289 285 285 290 289 289 285 281 278 273 274 273 272 273 274 272 270 269 269 268
289 289 289 289 288 288 289 289 290 290 290 290 290 290 291 291 293 292 292 287 291 288 281 288 284 286 287 286 287 289 289 289 291 281 285 283 288 286 284 279 273 273 271 268 268 269 269 269 268 267 266 265 264 263
288 288 288 288 288 288 289 289 289 290 289 289 289 289 289 287 291 288 284 291 280 284 284 280 286 287 288 289 289 289 290 290 284 290 288 284 280 278 272 269 265 264 264 264 263 264 264 262 262 262 260 261 261 261
286 286 287 287 288 288 288 289 289 289 288 287 289 288 288 285 285 286 279 281 282 280 282 281 286 286 285 289 291 291 289 286 288 288 283 277 280 277 269 266 264 262 262 262 260 260 260 260 259 259 260 259 259 259
285 285 286 286 286 287 287 288 288 288 287 287 287 286 285 277 271 270 269 276 279 280 287 286 283 288 287 289 290 288 285 287 284 281 279 278 273 269 266 263 261 260 259 257 257 257 258 259 258 258 258 258 258 259
283 284 285 285 286 286 287 287 287 287 287 287 284 283 274 275 272 270 270 276 276 284 287 287 288 289 289 289 290 288 286 283 281 276 266 265 265 264 263 261 258 257 256 256 256 257 257 257 257 257 258 259 259 259
282 282 283 284 284 285 286 286 286 287 287 286 280 260 271 282 282 277 272 277 277 286 286 285 288 288 288 289 288 286 284 277 264 263 264 263 264 261 259 258 254 255 254 254 255 256 256 256 256 257 255 259 260 260
280 281 282 284 285 284 282 279 282 281 279 274 274 267 262 263 269 269 270 274 277 283 284 286 286 287 287 286 284 278 267 262 263 263 262 260 259 258 257 255 254 255 254 255 256 256 256 256 256 256 258 259 260 260
281 281 280 281 283 280 273 272 273 277 271 269 269 269 263 263 264 266 266 270 273 274 276 282 284 286 279 270 269 267 266 266 266 262 259 258 257 256 255 255 255 255 256 255 256 257 258 258 258 259 259 259 259 259
279 279 279 278 280 277 274 270 271 270 269 269 269 269 267 265 265 261 261 267 273 276 279 280 273 265 265 263 261 263 265 264 262 262 260 258 256 256 256 256 256 256 256 256 257 258 259 258 258 258 258 259 258 258
276 276 276 278 272 269 268 269 268 268 268 266 265 268 267 266 265 265 263 266 274 267 269 262 261 259 258 257 256 258 258 261 261 260 259 258 257 257 256 257 257 257 257 256 255 257 258 258 258 258 258 258 258 258
273 274 273 273 269 265 264 264 265 263 264 262 265 264 260 260 259 261 263 267 262 258 257 257 257 257 258 256 255 254 255 258 258 259 259 258 258 257 254 256 257 253 257 258 258 258 258 258 258 258 258 258 258 259
271 272 269 267 267 264 263 262 262 263 264 263 258 262 260 257 257 262 264 259 257 255 253 253 253 254 255 254 255 256 256 258 258 257 257 256 257 258 258 258 259 257 254 258 258 258 258 258 258 258 258 258 258 258
268 261 263 263 262 262 259 261 263 264 264 264 262 262 258 253 258 264 259 256 255 255 255 254 254 255 255 255 255 255 255 256 256 256 257 257 253 256 258 259 259 259 259 259 258 258 258 258 258 258 258 258 258 258
267 257 258 258 259 262 262 262 266 266 264 261 263 260 257 253 265 262 261 259 259 258 256 256 257 258 258 257 256 255 256 257 256 251 257 259 258 257 258 259 259 259 259 259 258 258 259 259 259 258 258 258 257 258
258 252 253 248 255 259 259 263 261 261 263 263 258 257 255 260 264 260 257 257 256 254 254 254 254 256 256 253 253 253 258 258 258 257 259 259 260 259 251 252 253 260 260 259 259 259 259 259 259 258 258 258 258 258
257 252 249 246 249 250 254 255 258 261 261 261 258 259 261 263 259 255 253 254 253 254 253 253 253 253 252 256 258 258 259 259 259 259 259 260 259 259 259 259 258 260 259 259 259 259 259 259 259 258 258 258 258 258
248 248 252 250 249 245 249 249 250 255 256 253 254 259 260 258 257 254 254 255 254 254 255 256 256 256 257 258 259 259 259 260 260 260 260 259 259 258 258 258 259 259 259 259 259 259 259 259 258 258 258 258 258 259
249 247 248 254 249 250 247 249 250 249 248 248 254 257 255 254 252 252 254 254 255 255 256 257 258 259 259 259 259 259 259 260 260 260 260 259 258 259 260 260 260 260 259 259 259 259 259 259 259 259 259 259 259 259
249 245 254 257 257 255 251 246 248 245 246 246 247 251 253 255 256 255 254 254 254 254 255 257 258 259 259 259 259 258 258 258 258 258 256 256 257 259 259 260 260 260 259 259 260 260 260 259 259 259 259 258 258 258
242 243 248 250 253 249 246 243 244 244 246 248 247 251 254 253 255 256 255 255 256 257 257 258 257 257 257 257 257 258 258 258 258 257 257 258 258 258 258 258 259 259 259 259 259 258 258 258 258 257 257 257 257 256
251 250 252 255 252 244 238 241 246 248 249 252 253 252 254 256 257 257 256 256 256 256 256 256 256 256 257 257 258 257 257 256 256 257 257 257 257 257 257 257 257 258 258 257 257 257 257 256 256 255 255 255 256 256
250 250 250 253 254 254 251 251 253 254 254 254 254 252 251 255 256 256 257 257 257 257 257 257 257 257 257 257 258 257 256 255 255 256 256 256 256 256 257 257 257 257 256 256 256 255 255 255 255 255 255 255 255 255
Wind_Speed
25 25 23 22 22 24 24 21 20 19 18 21 21 21 20 19 21 19 14 15 10 2 4 4 3 4 3 3 5 4 4 2 2 3 4 4 3 6 3 4 7 7 7 5 2 1 9 8 2 7 7 3 6 7
28 23 21 22 22 23 22 22 21 21 22 22 24 26 22 21 18 22 7 18 21 3 4 5 9 8 6 9 6 1 4 5 5 3 1 2 1 1 4 3 2 1 7 5 10 7 5 7 7 9 5 6 6 7
27 26 23 20 19 20 20 20 22 20 18 18 19 22 23 22 22 23 13 22 15 2 3 4 5 16 19 8 14 5 2 6 5 4 4 3 3 3 3 5 1 5 2 5 3 6 9 9 8 8 8 9 8 8
25 23 28 28 25 20 16 14 18 17 19 18 17 19 21 22 23 24 21 20 12 2 3 5 8 11 24 23 16 10 6 4 4 3 2 3 3 4 4 4 6 8 5 6 8 10 11 11 9 10 11 9 8 8
27 25 25 24 24 26 22 20 16 15 15 15 17 17 18 20 19 21 23 27 27 6 2 3 4 7 18 27 24 22 13 5 2 2 2 4 2 2 1 2 6 11 18 11 13 15 11 14 11 7 8 12 11 9
26 25 23 21 22 22 22 19 18 16 15 15 14 13 14 16 18 12 4 22 32 20 2 3 2 2 20 25 23 16 14 5 3 3 3 3 4 5 4 4 15 19 14 17 17 14 13 17 12 8 9 9 10 9
24 23 19 20 19 19 16 19 17 15 15 14 14 14 14 15 18 4 3 4 24 25 3 3 3 3 11 6 2 4 9 4 6 3 4 3 3 6 3 8 23 17 14 13 11 12 13 13 9 8 9 7 5 5
25 21 19 18 17 18 18 17 15 14 15 16 15 16 14 14 14 15 17 8 14 7 2 3 2 1 4 4 4 3 4 4 6 5 1 6 2 4 6 15 19 15 12 14 17 15 17 11 2 3 5 6 4 5
19 19 16 15 15 16 15 14 14 13 13 15 17 16 12 11 5 6 11 15 19 8 3 2 5 4 3 2 2 1 2 3 2 5 5 5 4 6 13 17 16 17 11 17 6 0 2 7 6 5 4 3 4 3
15 17 16 14 12 12 12 13 13 12 12 11 9 5 3 7 13 15 14 5 6 4 2 3 0 5 5 2 1 3 2 3 3 5 3 5 9 20 18 14 9 8 8 6 3 5 1 3 5 5 5 3 3 3
16 16 14 12 10 10 12 14 14 12 8 8 3 3 3 13 7 3 4 5 4 4 4 4 9 5 2 4 4 3 3 3 3 4 8 4 5 17 18 18 8 4 7 4 5 5 4 3 5 5 4 3 6 6
8 8 9 10 9 10 11 15 18 16 9 8 6 4 4 3 3 5 5 3 5 7 2 6 4 5 3 3 3 5 5 5 6 3 4 4 12 7 9 7 4 6 7 6 4 7 6 7 6 6 5 5 5 5
4 7 8 10 11 11 13 13 15 18 15 6 2 2 3 3 6 7 6 3 1 3 4 2 1 4 3 2 3 5 8 6 4 6 5 6 4 5 6 6 5 5 7 7 6 9 11 9 10 8 8 6 3 1
4 2 4 6 8 10 13 15 15 16 5 3 5 6 5 4 4 4 4 4 3 3 6 4 3 4 3 5 3 4 4 4 6 5 7 3 7 6 6 5 8 6 7 8 7 9 9 9 8 8 7 4 1 3
5 2 1 5 7 9 11 13 16 12 5 3 3 5 5 2 1 2 2 1 2 1 6 2 2 3 2 4 4 3 3 4 6 6 4 4 4 8 8 6 8 8 8 7 7 6 8 8 7 5 4 2 3 5
7 3 2 3 5 10 14 14 16 9 3 3 3 2 1 3 3 3 2 1 1 1 2 1 3 3 5 4 6 6 6 7 5 4 1 1 3 5 7 6 6 6 7 8 12 11 10 7 5 3 2 3 3 3
5 2 9 10 9 8 7 11 7 5 4 5 2 2 1 3 3 2 1 1 3 1 2 2 5 7 2 2 4 4 5 3 2 2 2 2 5 7 8 7 5 10 10 12 10 10 8 6 3 3 4 4 5 6
2 7 11 13 11 8 4 4 2 2 3 3 1 2 1 1 3 2 1 1 1 2 2 2 2 4 4 5 3 1 2 1 3 3 4 3 6 7 8 8 10 14 12 11 10 9 8 6 5 2 1 4 5 7
2 5 8 9 5 5 3 4 5 3 2 1 2 2 1 1 1 1 1 2 1 1 2 1 3 2 1 2 2 1 1 1 2 2 2 4 7 9 11 13 13 11 12 10 9 8 7 5 4 1 2 3 5 7
3 3 7 5 5 3 3 2 5 3 2 2 1 1 2 1 1 2 2 2 1 1 2 1 1 2 3 3 3 3 2 2 4 3 3 3 4 9 7 9 8 12 12 10 9 8 6 5 4 0 1 3 4 6
1 2 5 3 5 10 4 2 3 2 2 2 1 2 2 2 2 3 3 4 1 3 2 2 2 1 1 2 4 3 3 3 1 1 3 3 4 7 8 10 12 10 6 7 6 5 5 4 2 1 3 3 4 5
2 3 3 6 4 4 4 5 2 1 2 1 2 2 3 2 2 2 3 3 3 2 2 2 2 3 2 3 3 6 5 4 6 8 11 16 4 4 3 10 9 3 7 7 7 6 4 2 0 1 3 4 5 6
3 4 6 8 5 5 2 3 4 3 3 1 2 3 2 2 1 2 3 2 1 1 2 2 2 3 2 2 1 3 6 5 3 4 7 10 10 11 12 10 7 9 3 4 5 4 3 2 2 2 2 4 6 7
6 7 6 4 5 1 2 4 2 2 2 3 3 2 3 2 4 3 3 2 2 1 1 3 3 2 1 3 0 1 5 7 10 11 9 13 4 6 8 7 5 4 3 5 4 4 4 3 1 2 3 6 7 7
5 9 5 6 4 4 5 4 3 3 3 2 2 3 3 3 2 3 2 2 3 3 3 3 2 2 1 1 1 4 4 4 5 3 4 7 10 7 4 2 2 3 5 7 7 6 4 3 3 4 6 8 8 9
8 5 4 3 4 3 3 2 4 3 2 3 2 2 2 2 4 3 2 3 2 2 3 3 4 3 2 2 1 1 2 4 3 4 3 4 3 4 3 2 1 1 5 7 6 6 6 6 7 8 9 9 9 10
6 5 3 0 1 0 3 2 1 2 4 4 3 4 3 4 3 2 2 1 2 5 12 9 6 5 3 3 3 3 4 3 5 5 4 3 1 1 3 2 2 2 2 3 6 9 10 10 11 11 13 14 14 13
2 4 4 6 3 1 3 3 4 3 2 3 1 5 3 3 1 2 2 7 15 13 8 2 3 6 5 6 6 7 5 2 3 4 3 4 3 2 3 5 7 8 9 10 9 9 11 13 14 15 17 19 20 18
3 3 1 4 3 4 3 2 0 1 2 1 2 2 2 1 2 2 6 13 10 6 6 6 7 6 5 6 6 8 8 10 8 5 5 2 2 6 8 10 9 8 7 8 9 11 12 14 16 18 19 21 22 23
4 2 3 4 3 4 2 1 1 1 1 1 1 1 1 1 4 14 13 12 10 7 6 5 7 10 9 8 8 14 17 16 13 8 2 2 6 15 13 11 10 9 9 11 12 13 13 15 17 19 21 22 23 24
1 3 3 3 3 1 1 2 1 1 1 1 0 1 1 1 2 15 23 17 13 14 13 11 13 15 13 13 11 7 7 15 16 14 12 12 15 16 16 15 15 14 15 16 17 18 19 21 22 23 24 25 26 25
3 3 3 3 2 1 2 2 1 1 2 1 2 1 1 1 3 5 25 22 18 16 17 19 16 13 12 8 9 12 12 16 17 17 16 17 18 18 18 18 18 17 17 18 19 20 20 21 23 24 24 26 27 27
2 1 1 1 2 2 3 3 0 2 1 2 2 1 1 2 4 1 8 17 16 15 15 17 16 12 13 16 10 11 20 20 18 17 16 16 16 17 18 18 16 15 17 18 20 21 22 23 24 25 26 27 27 28
Wind_Direction
256 247 242 246 238 233 235 236 233 231 230 228 218 220 215 211 211 195 205 197 174 157 283 211 226 148 120 124 145 200 79 339 49 119 143 198 177 214 159 202 177 157 171 201 102 132 264 186 81 160 215 192 180 192
241 241 239 239 235 236 234 231 230 230 226 232 224 216 212 214 215 204 206 206 202 140 236 262 257 243 187 181 130 221 156 160 165 121 208 122 237 76 156 228 173 247 201 181 185 202 216 194 194 221 176 174 203 201
239 235 239 244 239 232 236 236 233 232 228 226 225 218 213 213 215 212 203 193 186 177 246 236 204 226 224 195 184 131 273 175 181 172 162 195 207 124 162 244 131 269 144 224 82 211 230 231 236 232 204 214 227 221
231 238 239 239 235 228 229 230 228 228 227 227 224 223 225 225 221 216 200 184 182 131 191 260 226 219 220 218 207 198 142 150 130 129 130 157 176 181 204 199 189 223 165 230 258 259 266 260 241 247 242 227 236 239
228 235 236 234 233 227 229 231 219 213 216 223 229 231 231 229 229 225 211 205 202 176 203 291 306 233 218 215 213 210 173 144 129 126 175 211 201 110 261 129 237 232 240 240 252 246 233 258 256 230 215 238 240 233
228 228 228 228 227 221 220 216 213 215 219 224 224 223 228 230 223 225 219 211 205 197 193 230 230 246 202 204 206 205 199 180 135 184 185 224 212 156 182 220 244 248 238 234 249 257 250 254 259 228 212 228 230 215
223 218 219 223 223 218 217 214 213 215 220 224 227 228 225 223 213 198 196 156 197 186 189 205 207 235 207 164 193 188 182 186 199 205 202 196 194 187 212 243 252 252 246 245 235 243 261 244 239 237 211 225 166 149
209 205 211 217 211 212 217 211 215 218 224 229 230 232 233 233 237 229 216 197 167 178 220 222 159 33 185 164 186 163 177 180 191 203 207 210 158 211 237 239 248 248 242 253 249 235 243 264 171 157 126 134 150 175
197 197 202 202 194 193 201 209 210 218 226 228 224 221 225 223 204 192 209 211 206 206 210 202 153 216 184 127 118 102 143 200 171 201 205 148 194 215 221 234 244 245 224 243 256 354 131 205 207 159 138 139 177 187
200 189 183 177 179 184 194 199 203 206 213 200 173 172 197 196 185 157 170 196 193 200 227 206 93 179 141 149 162 122 179 197 209 229 141 215 227 234 238 239 228 229 219 151 137 272 199 229 186 172 196 157 171 160
173 165 170 175 187 206 215 213 203 195 174 167 185 197 165 150 139 174 195 203 175 203 191 199 186 146 249 152 164 202 179 186 206 235 177 208 243 237 235 239 235 144 138 111 113 104 97 126 159 144 131 114 120 129
149 169 182 195 213 219 219 216 202 179 169 173 144 129 168 183 207 197 185 206 182 203 232 159 192 157 167 149 132 173 182 189 221 138 161 229 245 218 200 183 130 116 119 112 101 116 103 93 85 97 94 100 108 116
195 208 212 219 226 220 208 196 194 190 151 127 141 189 163 239 207 184 200 198 207 177 163 173 160 129 133 189 172 177 202 211 113 184 219 228 230 210 161 131 114 111 110 111 95 96 104 98 92 96 106 103 110 68
91 134 215 221 216 219 214 203 194 172 129 180 178 198 196 196 233 190 190 200 223 135 158 143 133 152 174 180 181 222 191 129 199 205 224 226 218 185 146 124 127 144 128 120 114 109 104 108 105 102 103 106 76 346
57 35 253 230 231 228 221 211 205 183 161 183 182 223 208 236 15 215 229 61 352 168 137 90 55 144 157 204 197 139 185 227 206 218 219 221 165 139 143 143 135 135 130 125 128 121 123 125 123 114 106 60 335 319
4 346 27 336 281 247 229 218 209 191 201 196 179 149 170 75 322 357 357 107 269 104 90 162 179 208 193 191 194 197 184 209 232 214 279 43 75 91 120 116 114 124 126 126 128 131 131 131 134 128 57 61 39 341
18 78 339 303 274 260 249 205 178 202 224 190 189 354 96 118 134 157 145 340 308 110 173 190 203 203 164 226 198 171 204 223 272 335 2 46 107 115 117 116 106 119 115 123 120 124 123 130 128 106 60 47 12 359
69 351 341 335 196 163 108 58 74 85 95 53 118 281 28 77 106 36 10 37 56 199 171 237 297 211 203 182 226 66 84 28 22 64 67 41 94 109 119 120 127 131 127 123 127 130 134 136 116 139 44 12 15 21
25 47 9 9 145 95 78 32 18 107 69 111 69 22 58 102 28 29 346 320 315 314 333 201 249 228 258 27 79 119 112 222 151 89 76 78 107 110 121 130 134 128 132 134 140 139 130 124 111 70 8 5 20 23
336 19 8 15 133 96 93 22 3 86 109 90 51 67 69 40 315 352 350 351 326 113 228 249 44 23 3 15 353 357 7 93 123 122 102 102 112 121 136 142 139 144 136 131 125 124 128 133 122 74 343 21 13 357
213 20 12 79 59 59 73 42 59 52 91 81 340 33 68 19 33 21 2 335 77 31 64 40 33 15 61 2 356 333 13 12 108 165 152 137 167 133 133 140 148 145 128 133 129 123 134 143 144 4 6 2 346 346
56 46 80 45 79 58 75 13 106 123 68 118 68 43 43 39 6 4 303 50 51 39 354 350 356 335 12 29 350 14 337 8 58 72 97 125 143 153 156 162 147 134 134 145 149 158 162 151 26 343 337 348 351 353
72 55 54 24 76 43 319 347 77 3 88 293 28 59 15 3 266 302 79 73 85 2 323 318 318 327 348 352 312 47 40 75 58 70 103 112 125 134 142 157 160 139 126 173 181 181 180 200 236 295 324 339 341 340
47 48 31 41 36 64 9 27 47 54 48 35 62 43 341 289 320 61 81 46 283 265 350 332 317 300 272 244 45 28 47 85 99 90 101 109 89 103 146 156 147 157 161 161 183 199 205 211 226 283 311 312 320 326
70 5 14 6 5 34 40 17 12 55 59 334 79 17 337 337 76 59 68 353 353 14 360 324 309 354 352 1 21 34 77 98 118 110 85 113 127 127 114 136 211 223 214 212 210 210 214 228 259 281 285 297 309 313
70 351 51 328 353 51 354 58 33 22 8 58 25 279 4 41 62 47 359 321 322 335 352 351 341 339 7 18 132 344 146 123 108 103 151 168 144 125 149 131 342 292 226 234 228 221 231 247 262 269 280 293 296 298
55 344 332 297 112 293 31 358 333 36 50 29 353 352 15 65 49 292 305 355 314 327 323 316 320 333 300 327 26 67 141 108 73 87 79 76 121 256 269 254 256 317 316 275 252 244 248 258 265 274 285 295 295 298
120 25 31 327 17 20 106 47 44 39 12 351 281 32 64 44 9 307 287 336 334 337 339 19 9 7 13 30 51 38 48 28 323 331 15 52 51 8 295 285 279 277 278 280 277 269 264 267 275 282 287 290 297 302
36 338 319 6 26 47 52 55 67 8 344 353 68 67 83 62 265 290 308 328 338 356 44 54 41 50 67 67 63 53 44 32 36 41 36 9 360 32 359 339 326 315 301 289 282 279 280 283 285 288 290 289 293 296
345 5 338 13 48 40 18 19 341 330 306 355 303 264 165 202 25 17 3 12 22 15 14 25 32 40 39 51 74 64 56 45 46 40 27 330 308 325 332 333 329 322 309 300 295 292 285 280 280 277 280 285 289 296
316 16 38 18 77 4 351 327 283 251 284 9 45 13 59 337 338 29 17 22 29 37 40 43 46 44 44 42 44 44 33 19 13 6 351 333 324 322 321 318 316 314 310 306 301 297 295 294 292 293 293 292 294 296
347 37 1 37 358 284 43 58 6 51 352 39 28 347 320 61 64 28 18 42 47 46 43 43 38 25 35 48 40 29 7 353 350 346 341 334 329 327 326 324 321 317 312 307 304 302 301 297 296 295 292 293 296 299
331 1 338 341 9 30 12 340 92 93 76 72 42 27 43 56 87 338 17 28 36 33 26 19 4 347 3 357 339 356 349 342 339 334 337 334 326 323 317 317 318 313 313 311 308 306 303 299 295 294 295 295 296 297